2011 YU75

Japanese version
Home page
Updated on September 3, 2012

---------------------------------------------------------------------

* Profile

Discovery Date December 26, 2011
Magnitude 20.5 mag
Discoverer Steward Observatory, Kitt Peak

* Pictures

* Orbital Elements

The following orbital elements are taken from MPO230281

Epoch 2012 Sept. 30.0 TT = JDT 2456200.5                MPC
M   7.33013              (2000.0)            P               Q
n   0.04810488     Peri.  243.28579     -0.96545118     -0.00705669
a   7.4876115      Node   295.32206     +0.13955529     -0.85819668
e   0.7663955      Incl.   16.74885     -0.22006439     -0.51327250
P  20.5            H   17.0           G   0.15           U   2
From 56 observations 2011 Dec. 26-2012 Apr. 25, mean residual 0".47.

* Magnitudes Graph

        H = 17.0  G = 0.15

---------------------------------------------------------------------

The orbital elements are published at the MPC Ephemerides and Orbital Elements.
The magnitudes graphs are made with Comet for Windows.

---------------------------------------------------------------------

Copyright(C) Seiichi Yoshida (comet@aerith.net). All rights reserved.